Fargo, ND

4:40 PM CDT on September 21, 2017 (GMT -0500)
Hector International

Weather History for KFAR - December, 2012

Change the Weather History Date:

Tuesday, December 11, 2012

  Actual Average Record
Temperature  
Mean Temperature 7 °F 15 °F  
Max Temperature 13 °F 24 °F 54 °F (1939)
Min Temperature 1 °F 7 °F -21 °F (1945)
Degree Days  
Heating Degree Days 58 50  
Month to date heating degree days 468 523  
Since 1 July heating degree days 2377 2485  
Cooling Degree Days 0 0  
Month to date cooling degree days 0 0  
Year to date cooling degree days 795 551  
Moisture  
Dew Point 1 °F    
Average Humidity 77    
Maximum Humidity 87    
Minimum Humidity 66    
Precipitation  
Precipitation T in 0.02 in 0.67 in (1949)
Month to date precipitation 0.14 0.29  
Year to date precipitation 14.29 22.07  
Snow  
Snow 0.10 in 0.30 in 5.70 in (1949)
Month to date snowfall 1.9 3.8  
Since 1 July snowfall 10.3 12.4  
Snow Depth 1.00 in    
Sea Level Pressure  
Sea Level Pressure 29.90 in    
Wind  
Wind Speed 7 mph (NNW)    
Max Wind Speed 9 mph    
Max Gust Speed 13 mph    
Visibility 9 miles    
Events Snow    
T = Trace of Precipitation, MM = Missing Value Source: NWS Daily Summary

Daily Weather History Graph

Daily Weather History Graph

Search for Another Location

Airport or City:

Trip Planner

Search our weather history database for the weather conditions in past years. The results will help you decide how hot, cold, wet, or windy it might be!

Date:

Astronomy

Dec. 11, 2012 Rise Set
Actual Time 8:03 AM CST 4:38 PM CST
Civil Twilight 7:27 AM CST 5:13 PM CST
Nautical Twilight 6:49 AM CST 5:52 PM CST
Astronomical Twilight 6:12 AM CST 6:29 PM CST
Moon 5:55 AM CST (12/11) 3:21 PM CST (12/11)
Length of Visible Light 9h 45m
Length of Day
8h 35m
Waning Crescent, 4% of the Moon is Illuminated
Dec 11
Waning Crescent
Dec 13
New
Dec 19
First Quarter
Dec 28
Full
Jan 4
Last Quarter

Hourly Weather History & Observations

Time (CST) Temp. Windchill Dew Point Humidity Pressure Visibility Wind Dir Wind Speed Gust Speed Precip Events Conditions
12:53 AM 3.0 °F -6.4 °F -2.0 °F 80% 29.81 in 10.0 mi SW 4.6 mph - N/A   Clear
1:53 AM 3.9 °F -9.4 °F -0.9 °F 80% 29.82 in 10.0 mi West 8.1 mph - N/A   Clear
2:53 AM 3.9 °F -9.4 °F -0.9 °F 80% 29.83 in 10.0 mi West 8.1 mph - N/A   Clear
3:53 AM 3.9 °F -8.2 °F -2.0 °F 76% 29.84 in 10.0 mi West 6.9 mph - N/A   Clear
4:53 AM 8.1 °F -6.2 °F 1.0 °F 73% 29.85 in 10.0 mi WNW 10.4 mph - N/A   Overcast
5:53 AM 8.1 °F -3.2 °F 1.0 °F 73% 29.86 in 10.0 mi NW 6.9 mph - N/A   Overcast
6:41 AM 8.6 °F -4.7 °F 1.4 °F 73% 29.81 in 10.0 mi NW 9.2 mph - N/A   Overcast
6:53 AM 8.1 °F -3.2 °F 1.0 °F 73% 29.88 in 8.0 mi NW 6.9 mph - 0.00 in Snow Light Snow
8:53 AM 9.0 °F -3.2 °F 3.0 °F 77% 29.91 in - NW 8.1 mph - 0.00 in   Unknown
9:49 AM 10.4 °F -3.3 °F 3.2 °F 73% 29.87 in 2.5 mi NW 10.4 mph - 0.00 in Snow Light Snow
9:50 AM 10.0 °F -3.7 °F 3.9 °F 76% 29.93 in 2.5 mi NW 10.4 mph - 0.00 in Snow Light Snow
10:35 AM 10.4 °F -5.4 °F 3.2 °F 73% 29.88 in 4.0 mi NW 13.8 mph - 0.00 in Snow Light Snow
11:22 AM 12.2 °F -1.0 °F 3.2 °F 67% 29.88 in 2.5 mi NNW 10.4 mph - 0.00 in Snow Light Snow
11:41 AM 10.4 °F -1.5 °F 1.4 °F 67% 29.88 in 5.0 mi North 8.1 mph - 0.00 in Snow Light Snow
1:53 PM 10.9 °F 2.9 °F 1.9 °F 67% 29.95 in 8.0 mi North 4.6 mph - 0.00 in   Overcast
2:33 PM 12.2 °F 4.3 °F 1.4 °F 62% 29.88 in 10.0 mi NW 4.6 mph - N/A   Scattered Clouds
3:43 PM 10.4 °F - 1.4 °F 67% 29.90 in 10.0 mi Calm Calm - N/A   Scattered Clouds
3:53 PM 10.9 °F - 1.9 °F 67% 29.97 in 10.0 mi Calm Calm - N/A   Partly Cloudy
4:53 PM 5.0 °F -4.1 °F -2.0 °F 73% 29.97 in 10.0 mi ENE 4.6 mph - N/A   Clear
5:53 PM 6.1 °F -2.8 °F -0.0 °F 76% 29.97 in 10.0 mi East 4.6 mph - N/A   Clear
6:53 PM 5.0 °F -2.1 °F -0.9 °F 76% 29.98 in 10.0 mi ESE 3.5 mph - N/A   Clear
7:53 PM 1.9 °F -9.2 °F -2.9 °F 80% 29.99 in 10.0 mi East 5.8 mph - N/A   Clear
8:53 PM 5.0 °F -8.1 °F -0.9 °F 76% 29.98 in 10.0 mi ESE 8.1 mph - N/A   Scattered Clouds
9:53 PM 7.0 °F -4.5 °F -0.0 °F 73% 29.98 in 10.0 mi ESE 6.9 mph - N/A   Mostly Cloudy
10:53 PM 7.0 °F -7.5 °F -0.0 °F 73% 29.96 in 10.0 mi ESE 10.4 mph - N/A   Overcast